TimeCST,TemperatureF,Dew PointF,Humidity,Sea Level PressureIn,VisibilityMPH,Wind Direction,Wind SpeedMPH,Gust SpeedMPH,PrecipitationIn,Events,Conditions,WindDirDegrees,DateUTC
12:15 AM,14.7,9.3,79,29.93,10.0,SSW,6.9,-,N/A,,Clear,200,2013-01-16 06:15:00
12:35 AM,14.5,9.1,79,29.92,10.0,SSW,6.9,-,N/A,,Clear,200,2013-01-16 06:35:00
12:55 AM,14.4,9.3,80,29.91,10.0,SSW,6.9,-,N/A,,Clear,200,2013-01-16 06:55:00
1:15 AM,14.9,9.5,79,29.90,10.0,SSW,6.9,-,N/A,,Clear,200,2013-01-16 07:15:00
1:35 AM,15.1,9.3,78,29.90,10.0,SSW,6.9,-,N/A,,Clear,200,2013-01-16 07:35:00
2:15 AM,15.4,9.5,77,29.87,10.0,SSW,8.1,-,N/A,,Clear,200,2013-01-16 08:15:00
2:35 AM,15.8,9.3,76,29.86,10.0,South,8.1,-,N/A,,Clear,190,2013-01-16 08:35:00
2:55 AM,16.5,9.5,74,29.83,10.0,South,8.1,-,N/A,,Clear,190,2013-01-16 08:55:00
3:15 AM,16.7,9.5,73,29.82,10.0,South,9.2,-,N/A,,Clear,190,2013-01-16 09:15:00
3:35 AM,17.1,9.5,72,29.81,10.0,SSW,9.2,-,N/A,,Clear,200,2013-01-16 09:35:00
3:55 AM,16.9,9.3,72,29.80,10.0,SSW,10.4,-,N/A,,Clear,200,2013-01-16 09:55:00
4:15 AM,17.6,9.3,70,29.78,10.0,SSW,11.5,17.3,N/A,,Clear,200,2013-01-16 10:15:00
4:35 AM,18.1,9.3,68,29.75,10.0,SSW,13.8,-,N/A,,Clear,200,2013-01-16 10:35:00
4:55 AM,18.3,9.5,68,29.74,10.0,SSW,12.7,20.7,N/A,,Clear,200,2013-01-16 10:55:00
5:35 AM,19.0,10.0,68,29.71,10.0,SSW,15.0,19.6,N/A,,Mostly Cloudy,210,2013-01-16 11:35:00
6:15 AM,19.4,10.6,69,29.69,10.0,SSW,13.8,-,N/A,,Overcast,200,2013-01-16 12:15:00
6:35 AM,20.1,10.9,68,29.69,10.0,SSW,15.0,-,N/A,,Overcast,210,2013-01-16 12:35:00
6:55 AM,20.5,11.3,68,29.68,10.0,SSW,15.0,20.7,N/A,Snow,Light Snow,210,2013-01-16 12:55:00
7:15 AM,21.2,11.8,67,29.68,10.0,SW,16.1,20.7,N/A,,Overcast,220,2013-01-16 13:15:00
7:35 AM,21.4,12.4,68,29.67,10.0,SSW,13.8,20.7,N/A,,Overcast,210,2013-01-16 13:35:00
7:55 AM,21.9,12.7,68,29.67,10.0,SW,12.7,-,N/A,,Overcast,220,2013-01-16 13:55:00
8:15 AM,22.1,12.9,68,29.67,10.0,SW,13.8,21.9,N/A,,Overcast,220,2013-01-16 14:15:00
8:35 AM,22.6,13.6,68,29.68,10.0,SW,13.8,20.7,N/A,,Overcast,230,2013-01-16 14:35:00
8:55 AM,22.6,15.4,74,29.68,7.0,SW,13.8,-,N/A,,Overcast,230,2013-01-16 14:55:00
9:15 AM,23.0,17.6,80,29.68,2.5,WSW,11.5,18.4,N/A,Snow,Light Snow,240,2013-01-16 15:15:00
9:35 AM,23.4,18.7,82,29.68,5.0,WSW,11.5,19.6,N/A,,Overcast,240,2013-01-16 15:35:00
9:55 AM,23.5,19.2,84,29.67,7.0,WSW,15.0,-,N/A,,Overcast,240,2013-01-16 15:55:00
10:15 AM,23.9,19.4,83,29.68,7.0,WSW,16.1,20.7,N/A,,Overcast,240,2013-01-16 16:15:00
10:35 AM,24.3,19.4,82,29.68,10.0,WSW,15.0,19.6,N/A,,Overcast,250,2013-01-16 16:35:00
10:55 AM,24.6,19.8,82,29.67,10.0,WSW,11.5,19.6,N/A,,Overcast,250,2013-01-16 16:55:00
11:15 AM,24.8,20.1,82,29.67,10.0,WSW,12.7,25.3,N/A,,Overcast,250,2013-01-16 17:15:00
11:35 AM,25.3,21.0,84,29.67,10.0,WSW,12.7,19.6,N/A,,Overcast,250,2013-01-16 17:35:00
11:55 AM,25.5,21.4,84,29.67,10.0,WSW,13.8,18.4,N/A,,Overcast,250,2013-01-16 17:55:00
12:15 PM,26.2,21.9,84,29.66,10.0,WSW,11.5,17.3,N/A,,Overcast,250,2013-01-16 18:15:00
12:35 PM,26.6,22.1,83,29.66,10.0,WSW,12.7,17.3,N/A,,Overcast,240,2013-01-16 18:35:00
12:55 PM,27.0,22.6,84,29.67,10.0,West,15.0,19.6,N/A,,Overcast,260,2013-01-16 18:55:00
1:15 PM,27.3,23.0,84,29.68,10.0,West,9.2,17.3,N/A,,Overcast,260,2013-01-16 19:15:00
1:35 PM,27.5,23.0,83,29.69,10.0,West,10.4,17.3,N/A,,Overcast,260,2013-01-16 19:35:00
2:15 PM,28.0,23.7,84,29.71,10.0,West,8.1,-,N/A,,Overcast,260,2013-01-16 20:15:00
2:35 PM,28.0,23.7,84,29.71,10.0,West,5.8,-,N/A,,Overcast,280,2013-01-16 20:35:00
2:55 PM,28.6,24.3,84,29.71,10.0,WNW,8.1,-,N/A,,Overcast,290,2013-01-16 20:55:00
3:15 PM,29.1,24.8,84,29.73,10.0,West,4.6,-,N/A,,Overcast,280,2013-01-16 21:15:00
3:35 PM,29.5,24.4,81,29.75,10.0,WNW,4.6,-,N/A,,Overcast,290,2013-01-16 21:35:00
3:55 PM,29.8,23.9,79,29.76,10.0,West,4.6,-,N/A,,Overcast,280,2013-01-16 21:55:00
4:15 PM,30.0,23.5,77,29.78,10.0,WNW,3.5,-,N/A,,Overcast,300,2013-01-16 22:15:00
4:35 PM,29.8,23.7,78,29.79,7.0,WNW,5.8,-,N/A,,Overcast,290,2013-01-16 22:35:00
4:55 PM,29.3,23.9,80,29.81,10.0,WNW,5.8,-,N/A,,Overcast,290,2013-01-16 22:55:00
5:15 PM,29.3,23.9,80,29.82,7.0,WNW,4.6,-,N/A,Snow,Light Snow,300,2013-01-16 23:15:00
5:35 PM,29.1,24.4,83,29.83,10.0,West,8.1,-,N/A,,Overcast,280,2013-01-16 23:35:00
5:55 PM,28.9,24.6,84,29.84,7.0,WNW,6.9,-,N/A,Snow,Light Snow,300,2013-01-16 23:55:00
6:15 PM,28.4,24.6,86,29.86,10.0,WNW,10.4,-,N/A,,Overcast,300,2013-01-17 00:15:00
6:35 PM,28.8,23.2,80,29.88,10.0,NW,11.5,17.3,N/A,,Overcast,310,2013-01-17 00:35:00
6:55 PM,28.4,21.2,74,29.89,10.0,NW,10.4,16.1,N/A,,Overcast,320,2013-01-17 00:55:00
7:15 PM,27.7,20.7,75,29.91,10.0,NW,8.1,-,N/A,,Overcast,310,2013-01-17 01:15:00
7:35 PM,26.8,19.2,73,29.93,10.0,WNW,4.6,16.1,N/A,,Scattered Clouds,300,2013-01-17 01:35:00
7:55 PM,26.1,17.4,70,29.94,10.0,West,6.9,-,N/A,,Clear,280,2013-01-17 01:55:00
8:15 PM,25.3,15.6,67,29.95,10.0,WNW,8.1,-,N/A,,Clear,290,2013-01-17 02:15:00
8:35 PM,24.6,14.0,64,29.96,10.0,WNW,8.1,-,N/A,,Clear,300,2013-01-17 02:35:00
8:55 PM,23.9,9.1,53,29.99,10.0,NW,12.7,19.6,N/A,,Clear,310,2013-01-17 02:55:00
9:15 PM,23.0,6.4,49,30.00,10.0,WNW,11.5,19.6,N/A,,Clear,300,2013-01-17 03:15:00
9:35 PM,21.9,5.9,50,30.01,10.0,NW,9.2,-,N/A,,Clear,310,2013-01-17 03:35:00
9:55 PM,21.0,5.7,52,30.01,10.0,NW,5.8,-,N/A,,Clear,320,2013-01-17 03:55:00
10:15 PM,20.1,5.9,54,30.01,10.0,WNW,6.9,-,N/A,,Clear,300,2013-01-17 04:15:00
10:35 PM,19.4,5.0,54,30.03,10.0,WNW,8.1,-,N/A,,Clear,300,2013-01-17 04:35:00
10:55 PM,18.5,4.8,55,30.04,10.0,NW,8.1,-,N/A,,Clear,310,2013-01-17 04:55:00
11:15 PM,17.6,4.6,57,30.06,10.0,NW,8.1,-,N/A,,Clear,310,2013-01-17 05:15:00
11:35 PM,17.2,4.6,58,30.07,10.0,NW,8.1,-,N/A,,Clear,310,2013-01-17 05:35:00
11:55 PM,16.5,4.5,59,30.08,10.0,WNW,6.9,-,N/A,,Clear,300,2013-01-17 05:55:00